Location: DaVinci Observatory
(43.1080°N, 78.6453°W)
Time: 15:40:49
(UTC-05:00)

Vanguard 1 Rocket - All Passes

Search period start: 13 December 2017 00:00
Search period end: 23 December 2017 00:00
Orbit: 656 x 4222 km, 34.3° (Epoch: 13 December)

Date Brightness Start Highest point End Pass type
(mag) Time Alt. Az. Time Alt. Az. Time Alt. Az.
13 Dec - 02:06:03 10° W 02:17:10 15° SW 02:28:15 10° SSW visible
13 Dec - 15:06:21 10° S 15:11:49 18° SE 15:19:36 10° E daylight
13 Dec - 17:26:31 10° SW 17:36:11 51° SSE 17:54:27 10° E visible
13 Dec - 19:50:34 10° W 20:04:18 64° S 20:28:17 10° ESE visible
13 Dec - 22:16:54 10° W 22:34:40 50° SSW 22:58:53 10° SE visible
14 Dec - 00:47:45 10° W 01:04:17 25° SW 01:22:01 10° S visible
14 Dec - 16:16:58 10° SSW 16:24:49 37° SE 16:38:47 10° E daylight
14 Dec - 18:39:50 10° WSW 18:51:14 62° S 19:12:44 10° E visible
14 Dec - 21:05:02 10° W 21:20:42 57° SSW 21:45:16 10° SE visible
14 Dec - 23:33:09 10° W 23:50:51 34° SW 00:12:09 10° SSE visible
15 Dec - 15:08:21 10° S 15:14:13 23° SE 15:23:10 10° E daylight
15 Dec - 17:29:33 10° WSW 17:38:57 54° SSE 17:57:03 10° E visible
15 Dec - 19:53:47 10° W 20:07:06 61° S 20:30:33 10° ESE visible
15 Dec - 22:20:14 10° W 22:37:06 44° SSW 23:00:21 10° SSE visible
16 Dec - 00:52:39 10° W 01:06:20 19° SW 01:21:10 10° SSW visible
16 Dec - 16:19:49 10° SW 16:27:28 42° SSE 16:41:35 10° E daylight
16 Dec - 18:43:01 10° WSW 18:54:06 61° S 19:15:10 10° ESE visible
16 Dec - 21:08:18 10° W 21:23:20 51° SSW 21:47:04 10° SE visible
16 Dec - 23:37:01 10° W 23:53:05 28° SW 00:12:34 10° S visible
17 Dec - 15:10:46 10° SSW 15:16:45 27° SE 15:26:24 10° E daylight
17 Dec - 17:32:42 10° WSW 17:41:49 56° SSE 17:59:36 10° E visible
17 Dec - 19:57:03 10° W 20:09:55 57° SSW 20:32:39 10° ESE visible
17 Dec - 22:23:44 10° W 22:39:34 37° SSW 23:01:25 10° SSE visible
18 Dec - 00:59:27 10° WSW 01:08:30 13° SW 01:18:11 10° SSW visible
18 Dec - 14:03:19 10° SSE 14:06:35 14° SE 14:10:39 10° ESE daylight
18 Dec - 16:22:48 10° SW 16:30:17 46° SSE 16:44:19 10° E daylight
18 Dec - 18:46:16 10° WSW 18:57:01 59° S 19:17:29 10° ESE visible
18 Dec - 21:11:39 10° W 21:26:01 45° SSW 21:48:36 10° SE visible
18 Dec - 23:41:27 10° W 23:55:24 22° SW 00:12:11 10° S visible
19 Dec - 15:13:27 10° SSW 15:19:25 32° SSE 15:29:27 10° E daylight
19 Dec - 17:35:55 10° WSW 17:44:46 57° S 18:02:07 10° ESE visible
19 Dec - 20:00:21 10° W 20:12:45 52° SSW 20:34:33 10° SE visible
19 Dec - 22:27:29 10° W 22:42:04 31° SW 23:01:59 10° SSE visible
20 Dec - 14:05:05 10° S 14:09:08 18° SE 14:14:40 10° E daylight
20 Dec - 16:25:55 10° SW 16:33:11 49° SSE 16:47:00 10° E daylight
20 Dec - 18:49:34 10° W 18:59:58 56° S 19:19:43 10° ESE visible
20 Dec - 21:15:09 10° W 21:28:42 39° SSW 21:49:47 10° SSE visible
20 Dec - 23:46:58 10° WSW 23:57:49 16° SW 00:10:27 10° SSW visible
21 Dec - 15:16:20 10° SW 15:22:14 36° SSE 15:32:25 10° E daylight
21 Dec - 17:39:10 10° WSW 17:47:47 56° S 18:04:35 10° ESE visible
21 Dec - 20:03:44 10° W 20:15:36 46° SSW 20:36:13 10° SE visible
21 Dec - 22:31:41 10° W 22:44:38 25° SW 23:01:55 10° S visible
22 Dec - 14:07:26 10° SSW 14:11:50 22° SE 14:18:11 10° E daylight
22 Dec - 16:29:06 10° WSW 16:36:11 51° SSE 16:49:40 10° E daylight
22 Dec - 18:52:54 10° W 19:02:56 51° S 19:21:46 10° ESE visible
22 Dec - 21:18:52 10° W 21:31:26 32° SSW 21:50:33 10° SSE visible
